[Iaude] MPEC V123: 2023 VP3 [a=0.79,e=0.29,i=2.0,H=29.4]
    mpec at marsden.cfa.harvard.edu 
    mpec at marsden.cfa.harvard.edu
       
    Wed Nov  8 15:09:12 EST 2023
    
    
  
M.P.E.C. 2023-V123                             Issued 2023 November 8, 20:07 UT
     The Minor Planet Electronic Circulars contain information on unusual
         minor planets, routine data on comets and natural satellites,
         and occasional editorial announcements.  They are published
    on behalf of Division F of the International Astronomical Union by the
          Minor Planet Center, Smithsonian Astrophysical Observatory,
                          Cambridge, MA 02138, U.S.A.
			  
             Prepared using the Tamkin Foundation Computer Network
                              MPC at CFA.HARVARD.EDU
            URL https://www.minorplanetcenter.net/    ISSN 1523-6714
                                    2023 VP3                                    
Observations:
     K23V03P*1C2023 11 08.18929723 31 41.570-03 12 21.90         19.00GVEV123G96
     K23V03P 1C2023 11 08.19447723 31 38.950-03 05 58.40               VEV123G96
     K23V03P 1C2023 11 08.19964223 31 36.470-02 59 39.80               VEV123G96
     K23V03P 1C2023 11 08.20480423 31 33.960-02 53 25.80               VEV123G96
     K23V03P mC2023 11 08.23069223 31 22.919-02 23 16.80         18.54GVEV123I52
     K23V03P mC2023 11 08.23086223 31 22.818-02 23 05.10         18.50GVEV123I52
     K23V03P mC2023 11 08.23103223 31 22.760-02 22 53.18         18.54GVEV123I52
     K23V03P mC2023 11 08.23120223 31 22.696-02 22 41.88         18.39GVEV123I52
     K23V03P 0C2023 11 08.27128123 32 57.687-01 31 02.97         18.93GVEV123T12
     K23V03P 0C2023 11 08.27158223 32 57.482-01 30 44.42         18.63GVEV123T12
     K23V03P KC2023 11 08.27160323 31 10.376-01 38 55.18         18.59GVEV123I52
     K23V03P 0C2023 11 08.27186623 32 57.291-01 30 26.94         18.71GVEV123T12
     K23V03P KC2023 11 08.27211423 31 10.250-01 38 23.17         18.69GVEV123I52
     K23V03P 0C2023 11 08.27259523 32 56.806-01 29 41.95         18.82GVEV123T12
     K23V03P KC2023 11 08.27262523 31 10.146-01 37 51.28         18.63GVEV123I52
     K23V03P KC2023 11 08.27314223 31 10.038-01 37 19.42         18.59GVEV123I52
     K23V03P 0C2023 11 08.43016923 31 44.735+00 49 06.19         19.15GVEV123T12
     K23V03P 0C2023 11 08.43076223 31 44.649+00 49 32.85         19.27GVEV123T12
     K23V03P 0C2023 11 08.43102923 31 44.610+00 49 44.94         19.17GVEV123T12
     K23V03P 0C2023 11 08.43407823 31 44.192+00 52 01.88         19.32GVEV123T12
     K23V03P KC2023 11 08.71905423 35 26.66 +03 31 26.3          19.6 GVEV123L01
     K23V03P KC2023 11 08.72053723 35 26.24 +03 32 09.7          19.6 GVEV123L01
     K23V03P KB2023 11 08.72110 23 35 25.15 +03 32 11.9          19.7 RZEV123106
     K23V03P KC2023 11 08.72201823 35 25.79 +03 32 53.2          19.6 GVEV123L01
     K23V03P KC2023 11 08.72350123 35 25.35 +03 33 35.9          19.4 GVEV123L01
     K23V03P KC2023 11 08.72498323 35 24.89 +03 34 19.4          19.4 GVEV123L01
     K23V03P KB2023 11 08.72648 23 35 23.56 +03 34 48.3          19.4 RZEV123106
     K23V03P KB2023 11 08.73197 23 35 21.90 +03 37 26.9          19.0 RZEV123106
     K23V03P KB2023 11 08.73731 23 35 20.26 +03 40 00.2          19.5 RZEV123106
     K23V03P KC2023 11 08.74992523 35 22.44 +03 45 53.1          19.2 GVEV123L06
     K23V03P KC2023 11 08.75174223 35 21.86 +03 46 44.1          19.0 GVEV123L06
     K23V03P KC2023 11 08.75355923 35 21.28 +03 47 35.1          18.9 GVEV123L06
Observer details:
106 Crni Vrh.  Observer H. Mikuz.  0.60-m f/3.3 reflector + CMO.
G96 Mt. Lemmon Survey.  Observer D. Rankin.  Measurers E. C. Beshore, D. Fay,
    J. B. Fazekas, D. C. Fuls, A. R. Gibbs, A. D. Grauer, H. Groeller, J. K.
    Hogan, R. A. Kowalski, S. M. Larson, G. J. Leonard, D. Rankin, R. L.
    Seaman, F. C. Shelly, K. W. Wierzchos.  1.5-m reflector + 10K CCD.
I52 Steward Observatory, Mt. Lemmon Station.  Observer H. Groeller.  Measurers
    E. C. Beshore, D. Fay, J. B. Fazekas, D. C. Fuls, A. R. Gibbs, A. D.
    Grauer, H. Groeller, J. K. Hogan, R. A. Kowalski, S. M. Larson, G. J.
    Leonard, D. Rankin, R. L. Seaman, F. C. Shelly, K. W. Wierzchos.  1.0-m
    prime focus + CCD.
L01 Visnjan Observatory, Tican.  Observer K. Korlevic.  1.0-m f/2.9 reflector
    + CCD.
L06 Sormano 2 Observatory, Bellagio Via Lattea.  Observer G. Ventre.  Measurer
    P. Sicoli.  0.36m Schmidt Cassegrain + CCD.
T12 University of Hawaii 88-inch telescope, Maunakea.  Observer D. J. Tholen.
    2.24-m f/10.1 reflector + 2112 x 2112 pixels STA1600 10k CCD.
Orbital elements:
2023 VP3                                                 Earth MOID = 0.0007 AU
Epoch 2023 Sept. 13.0 TT = JDT 2460200.5                Bell                    
M  65.68241              (2000.0)            P               Q                  
n   1.40464156     Peri.  199.89753     -0.41085210     +0.91136179             
a   0.7896338      Node    45.85335     -0.83170138     -0.36347079             
e   0.2899462      Incl.    1.98898     -0.37346133     -0.19315452             
P   0.70           H   29.43          G   0.15           U   6                  
Residuals in seconds of arc
231108 G96  0.0   0.6-    231108 T12  0.0   0.0     231108 106  0.0   0.3+
231108 G96  0.2-  0.4-    231108 I52  0.3-  0.1-    231108 L01  0.1-  0.1+
231108 G96  0.6+  0.3+    231108 T12  0.1+  0.1+    231108 L01  0.1-  0.5-
231108 G96  0.2-  1.0+    231108 I52  0.2-  0.1+    231108 L01  0.3-  0.1-
231108 I52  0.3+  0.2-    231108 I52  0.1-  0.1-    231108 106  0.1-  0.0
231108 I52  0.2-  0.1-    231108 T12  0.1+  0.0     231108 106  0.2-  0.0
231108 I52  0.1-  0.3+    231108 T12  0.1+  0.1-    231108 106  0.1-  0.3+
231108 I52  0.1-  0.0     231108 T12  0.1+  0.0     231108 L06  0.3+  0.1-
231108 T12  0.1+  0.1+    231108 T12  0.1+  0.1-    231108 L06  0.0   0.0
231108 T12  0.1+  0.1+    231108 L01  0.1-  0.1-    231108 L06  0.2-  0.2+
231108 I52  0.1-  0.3-    231108 L01  0.1+  0.2-
Ephemeris:
2023 VP3                 a,e,i = 0.79, 0.29, 2                   q = 0.5607
Date    TT    R. A. (2000) Decl.     Delta      r    Elong.  Phase     V
2023 10 09    11 49 56.8 -07 25 03   0.1106  0.8936    16.4   161.6
...
2023 10 24    11 40 00.8 -07 37 40   0.05187 0.9516    32.7   145.7    30.6
...
2023 11 01    11 37 20.5 -08 45 46   0.02294 0.9754    40.8   138.4    27.8
...
2023 11 07    11 51 36.5 -40 51 13   0.0016350.9901    45.0   134.9    21.7
2023 11 08    23 30 25.1 -07 32 40   0.0024640.9924   125.1    54.7    18.4
2023 11 09    23 35 21.7 +05 40 14   0.0059810.9946   130.2    49.6    20.2
...
2023 11 15    23 39 05.4 +12 48 07   0.02746 1.0061   127.1    51.7    23.5
...
2023 11 23    23 42 49.1 +14 01 12   0.05613 1.0173   120.5    56.7    25.3
...
2023 12 08    23 53 05.2 +15 11 39   0.1089  1.0252   108.7    65.6    27.0
M. P. C. Staff               (C) Copyright 2023 MPC           M.P.E.C. 2023-V123
    
    
More information about the Iaude
mailing list